Date String (YYYY-MM-DD hh:mm:ss) UTC,Instrument flags,Ambient pressure (hPa),Sample flow (lpm),Bypass flow (lpm),Sample temperature (°C),Ambient temperature (°C),ASC tube jacket temperature (°C),LED temperature (°C),Box temperature (°C),Sample RH (%),Span deviation,Mass concentration (μg/m³),Mass concentration (μg/m³),Mass concentration (μg/m³)
DateTimeUTC,F1_M11,P_M11,Q1_M11,Q2_M11,T1_M11,T2_M11,T3_M11,T4_M11,T5_M11,U1_M11,ZSPAN_M11,X0_M11,X2_M11,X1_M11
2023-02-28 08:00:00,,0813.6,5.01,0.00,22.2,20.5,00.0,31.0,23.8,08.0,0000.0,0001.86,0001.05,0000.58
2023-02-28 08:01:00,,0813.6,4.99,0.00,22.1,20.3,00.0,30.9,23.7,08.0,0000.0,0002.02,0001.10,0000.58
2023-02-28 08:02:00,,0813.6,5.02,0.00,22.1,20.2,00.0,30.9,23.7,08.1,0000.0,0002.11,0001.11,0000.57
2023-02-28 08:03:00,,0813.6,5.00,0.00,22.1,20.1,00.0,30.9,23.6,08.2,0000.0,0002.12,0001.10,0000.57
2023-02-28 08:04:00,,0813.6,5.00,0.00,22.0,20.1,00.0,30.9,23.6,08.2,0000.0,0002.21,0001.09,0000.57
2023-02-28 08:05:00,,0813.5,5.00,0.00,22.1,21.2,00.0,30.8,23.8,08.2,0000.0,0002.20,0001.08,0000.56
2023-02-28 08:06:00,,0813.5,4.99,0.00,22.2,22.5,00.0,30.8,24.2,08.2,0000.0,0002.18,0001.06,0000.57
2023-02-28 08:07:00,,0813.6,4.95,0.00,22.4,23.6,00.0,30.9,24.5,08.2,0000.0,0002.13,0001.03,0000.57
2023-02-28 08:08:00,,0813.5,5.01,0.00,22.5,23.3,00.0,31.0,24.5,08.1,0000.0,0001.98,0000.98,0000.56
2023-02-28 08:09:00,,0813.4,4.99,0.00,22.5,22.6,00.0,31.0,24.4,08.1,0000.0,0001.84,0000.92,0000.56
2023-02-28 08:10:00,,0813.4,5.01,0.00,22.5,22.0,00.0,31.0,24.2,08.1,0000.0,0001.93,0000.92,0000.55
2023-02-28 08:11:00,,0813.3,5.00,0.00,22.4,21.5,00.0,31.1,24.1,08.1,0000.0,0001.92,0000.92,0000.55
2023-02-28 08:12:00,,0813.3,5.00,0.00,22.4,21.2,00.0,31.1,24.0,08.1,0000.0,0001.78,0000.86,0000.54
2023-02-28 08:13:00,,0813.3,4.99,0.00,22.3,20.9,00.0,31.1,23.9,08.2,0000.0,0001.61,0000.80,0000.54
2023-02-28 08:14:00,,0813.3,5.00,0.00,22.3,20.6,00.0,31.1,23.9,08.1,0000.0,0001.60,0000.80,0000.54
2023-02-28 08:15:00,,0813.3,5.01,0.00,22.2,20.5,00.0,31.1,23.8,08.1,0000.0,0001.59,0000.83,0000.54
2023-02-28 08:16:00,,0813.3,5.00,0.00,22.2,20.3,00.0,31.0,23.8,08.2,0000.0,0001.60,0000.85,0000.54
2023-02-28 08:17:00,,0813.3,5.00,0.00,22.2,20.1,00.0,31.0,23.7,08.2,0000.0,0001.68,0000.87,0000.54
2023-02-28 08:18:00,,0813.3,5.01,0.00,22.1,20.0,00.0,31.0,23.6,08.2,0000.0,0001.74,0000.90,0000.54
2023-02-28 08:19:00,,0813.3,4.99,0.00,22.0,20.1,00.0,31.0,23.6,08.3,0000.0,0001.73,0000.90,0000.54
2023-02-28 08:20:00,,0813.3,4.99,0.00,22.1,21.2,00.0,30.9,23.9,08.3,0000.0,0001.85,0000.93,0000.54
2023-02-28 08:21:00,,0813.3,5.00,0.00,22.2,22.4,00.0,30.9,24.2,08.3,0000.0,0001.78,0000.94,0000.53
2023-02-28 08:22:00,,0813.2,5.00,0.00,22.4,22.9,00.0,31.0,24.4,08.3,0000.0,0001.75,0000.93,0000.53
2023-02-28 08:23:00,,0813.3,4.98,0.00,22.4,22.4,00.0,31.0,24.3,08.3,0000.0,0001.70,0000.91,0000.53
2023-02-28 08:24:00,,0813.2,5.02,0.00,22.4,21.8,00.0,31.0,24.1,08.3,0000.0,0001.68,0000.90,0000.52
2023-02-28 08:25:00,,0813.2,5.01,0.00,22.3,21.4,00.0,31.0,24.0,08.3,0000.0,0001.69,0000.90,0000.52
2023-02-28 08:26:00,,0813.1,5.01,0.00,22.3,21.0,00.0,31.0,23.9,08.3,0000.0,0001.70,0000.87,0000.51
2023-02-28 08:27:00,,0813.1,5.01,0.00,22.3,20.7,00.0,31.0,23.8,08.3,0000.0,0001.73,0000.87,0000.51
2023-02-28 08:28:00,,0813.1,4.99,0.00,22.2,20.4,00.0,31.0,23.8,08.3,0000.0,0002.60,0000.87,0000.51
2023-02-28 08:29:00,,0813.1,5.00,0.00,22.2,20.2,00.0,31.0,23.7,08.4,0000.0,0002.98,0000.89,0000.51
2023-02-28 08:30:00,,0813.1,5.00,0.00,22.1,20.1,00.0,31.0,23.6,08.5,0000.0,0003.04,0000.90,0000.51
2023-02-28 08:31:00,,0813.2,4.99,0.00,22.1,19.9,00.0,31.0,23.6,08.5,0000.0,0003.11,0000.94,0000.53
2023-02-28 08:32:00,,0813.2,4.98,0.00,22.0,20.1,00.0,30.9,23.6,08.6,0000.0,0003.56,0000.95,0000.54
2023-02-28 08:33:00,,0813.1,4.97,0.00,22.1,21.4,00.0,30.9,23.9,08.5,0000.0,0003.73,0000.95,0000.54
2023-02-28 08:34:00,,0813.1,4.97,0.00,22.2,22.6,00.0,30.9,24.2,08.4,0000.0,0003.75,0000.96,0000.55
2023-02-28 08:35:00,,0813.1,5.03,0.00,22.4,23.3,00.0,30.9,24.4,08.3,0000.0,0003.84,0000.99,0000.56
2023-02-28 08:36:00,,0813.1,5.00,0.00,22.4,22.8,00.0,31.0,24.3,08.2,0000.0,0004.01,0001.03,0000.56
2023-02-28 08:37:00,,0813.1,4.96,0.00,22.4,22.1,00.0,31.0,24.2,08.3,0000.0,0003.91,0001.04,0000.57
2023-02-28 08:38:00,,0813.1,5.00,0.00,22.4,21.6,00.0,31.0,24.1,08.2,0000.0,0003.84,0001.03,0000.57
2023-02-28 08:39:00,,0813.1,5.01,0.00,22.3,21.2,00.0,31.0,24.0,08.3,0000.0,0003.11,0001.02,0000.58
2023-02-28 08:40:00,,0813.1,5.00,0.00,22.3,20.8,00.0,31.0,23.9,08.3,0000.0,0002.62,0001.01,0000.58
2023-02-28 08:41:00,,0813.1,5.01,0.00,22.2,20.6,00.0,31.0,23.8,08.2,0000.0,0002.51,0000.99,0000.58
2023-02-28 08:42:00,,0813.0,5.00,0.00,22.2,20.3,00.0,31.0,23.7,08.3,0000.0,0002.33,0000.93,0000.57
2023-02-28 08:43:00,,0813.1,5.02,0.00,22.1,20.1,00.0,31.0,23.7,08.3,0000.0,0001.93,0000.90,0000.57
2023-02-28 08:44:00,,0813.2,5.00,0.00,22.1,20.0,00.0,31.0,23.6,08.3,0000.0,0001.65,0000.89,0000.58
2023-02-28 08:45:00,,0813.2,5.01,0.00,22.0,19.9,00.0,30.9,23.6,08.3,0000.0,0001.65,0000.88,0000.57
2023-02-28 08:46:00,,0813.1,4.99,0.00,22.0,20.3,00.0,30.9,23.6,08.3,0000.0,0001.61,0000.87,0000.57
2023-02-28 08:47:00,,0813.0,4.97,0.00,22.1,21.6,00.0,30.9,23.9,08.2,0000.0,0001.48,0000.84,0000.57
2023-02-28 08:48:00,,0812.9,4.99,0.00,22.2,22.9,00.0,30.9,24.3,08.2,0000.0,0001.49,0000.85,0000.57
2023-02-28 08:49:00,,0812.9,4.98,0.00,22.4,23.5,00.0,30.9,24.5,08.1,0000.0,0001.57,0000.86,0000.57
2023-02-28 08:50:00,,0812.8,5.01,0.00,22.4,22.8,00.0,31.0,24.4,08.1,0000.0,0001.76,0000.90,0000.57
2023-02-28 08:51:00,,0812.8,5.01,0.00,22.4,22.1,00.0,31.0,24.2,08.1,0000.0,0001.72,0000.89,0000.57
2023-02-28 08:52:00,,0812.8,4.98,0.00,22.4,21.6,00.0,31.0,24.1,08.1,0000.0,0001.68,0000.87,0000.57
2023-02-28 08:53:00,,0812.7,5.00,0.00,22.4,21.3,00.0,31.1,24.0,08.1,0000.0,0001.73,0000.88,0000.57
2023-02-28 08:54:00,,0812.7,4.99,0.00,22.3,21.0,00.0,31.1,23.9,08.2,0000.0,0001.68,0000.86,0000.56
2023-02-28 08:55:00,,0812.8,4.99,0.00,22.3,20.7,00.0,31.0,23.9,08.2,0000.0,0001.70,0000.86,0000.56
2023-02-28 08:56:00,,0812.7,4.99,0.00,22.2,20.5,00.0,31.0,23.8,08.2,0000.0,0001.67,0000.87,0000.56
2023-02-28 08:57:00,,0812.7,5.01,0.00,22.2,20.4,00.0,31.0,23.7,08.3,0000.0,0001.70,0000.89,0000.56
2023-02-28 08:58:00,,0812.7,5.00,0.00,22.1,20.3,00.0,31.0,23.7,08.3,0000.0,0001.74,0000.90,0000.56
2023-02-28 08:59:00,,0812.6,5.02,0.00,22.1,20.2,00.0,31.0,23.6,08.3,0000.0,0001.76,0000.91,0000.56
